Weather in Samarskoe

Kazakhstan     49°01′16″N   83°21′49″E
temp.,
°C
wind,
m/s
gust,
m/s
humid.,
%
clouds,
%
prec.,
mm/h
press.,
hPa
HPBL,
m
27 october, wed
wed2700:00+6wsw11402 0.0 102110
03:00+4s114459 0.0 102210
06:00+3e115096 0.0 102410
09:00+6ene1147100 0.0 102558
12:00+9s1245100 0.0 1024393
15:00+9s1245100 0.0 1023428
18:00+8wnw2251100 0.0 102412
21:00+7n346599 0.1 102583
28 october, thu
thu2800:00+6nw2376100 0.1 1026186
03:00+5ene1185100 0.6 102689
06:00+4ne119292 0.6 102744
09:00+5ene1185100 0.0 1027211
12:00+8ese1168100 0.0 1026465
15:00+9sse1159100 0.0 1025600
18:00+7s116892 0.0 102610
21:00+6nnw117147 0.0 102710
29 october, fri
fri2900:00+6n117593 0.1 102728
03:00+5nne228182 0.0 102821
06:00+5ne227870 0.0 102838
09:00+6ene117298 0.0 102985
12:00+8ese116168 0.0 1029321
15:00+9sse115769 0.0 1028472
18:00+8e1163100 0.1 102816
21:00+8ene1163100 0.0 102919
30 october, sat
sat3000:00+7wnw116532 0.0 102910
03:00+6sw116997 0.0 103011
06:00+5sw117889 0.0 103115
09:00+6ssw2358100 0.0 1033133
12:00+8sw4642100 0.0 1033709
15:00+9wsw5638100 0.0 10321286
18:00+6nw1148100 0.0 103311
21:00+5n1150100 0.0 103310
31 october, sun
sun3100:00+4nne1154100 0.0 103210
03:00+5ene1157100 0.0 103013
06:00+4nw2280100 0.8 103098
09:00+4w2488100 0.9 1029424
12:00+5sse4786100 2.2 1027613
15:00+5s4889100 1.3 1024636
18:00+6w4869100 2.3 1023242
21:00+5wnw4853100 0.0 1024379